LEMUR-2-NATE

Last updated on Feb. 28, 2017, 12:17 a.m. UTC

1 41598U 16019E   17058.48104143  .13500253  12598-4  42079-3 0  9993
2 41598  51.6082 187.4528 0006461 311.7838  48.2638 16.44599812 39534

Satellite is not in orbit.